Regional Weather Roundup
Issued by NWS Upton, NY

Current Version | Previous Version | Graphics & Text | Print | Product List | Glossary Off
Versions: 1 2 3 4 5 6 7 8 9 10 11 12 13 14 15 16 17 18 19 20 21 22 23 24 25 26 27

000
ASUS41 KOKX 210509
RWROKX

REGIONAL WEATHER ROUNDUP
NATIONAL WEATHER SERVICE NEW YORK NY
100 AM EDT FRI JUL 21 2017

NOTE: "FAIR" INDICATES FEW OR NO CLOUDS BELOW 12,000 FEET WITH NO
SIGNIFICANT WEATHER AND/OR OBSTRUCTIONS TO VISIBILITY.

NYZ071-072-176-178-NJZ106-104-210600-
NEW YORK CITY METRO AREA

CITY           SKY/WX    TMP DP  RH WIND       PRES   REMARKS
Central Park   PTCLDY    79  67  66 CALM      29.91S
Bronx Bot Gard   N/A     79  64  61 W6        29.89R
LaGuardia APRT CLOUDY    80  69  69 NW13      29.87S
Kennedy INTL   MOCLDY    80  71  74 W9        29.88S
Breezy Point     N/A     73 N/A N/A W6          N/A
Newark/Liberty PTCLDY    76  69  79 W7        29.89R
Teterboro      CLOUDY    77  67  71 W5        29.88R
$$

NYZ177-179-078>081-210600-
LONG ISLAND NEW YORK

CITY           SKY/WX    TMP DP  RH WIND       PRES   REMARKS
Jones Beach      N/A     75 N/A N/A W8          N/A
Matinecock PT    N/A     77 N/A N/A SW8         N/A
Farmingdale    PTCLDY    79  68  69 NW5       29.87S
MacArthur/ISP  CLEAR     79  67  66 W7        29.86R
Shirley        PTCLDY    79  68  69 NW5       29.87R
Mt Sinai Harb    N/A     77 N/A N/A W3          N/A
Westhampton    CLEAR     76  66  71 NW7       29.88R
East Hampton   FAIR      76  71  84 NW3       29.86R
Montauk          N/A     78  75  90 VRB3      29.86R
$$

NYZ052-065-067-210600-
HUDSON VALLEY

CITY           SKY/WX    TMP DP  RH WIND       PRES   REMARKS
White Plains   NOT AVBL
Larchmont Harb   N/A     79 N/A N/A W12         N/A
Croton O-T Hud   N/A     77 N/A N/A NW1         N/A
Newburgh       MOCLDY    72  72 100 W9        29.92S
Montgomery     PTCLDY    69  68  96 CALM      29.91S FOG
Poughkeepsie   MOCLDY    70  68  93 CALM      29.88S
Albany         PTCLDY    68  61  78 W7        29.89S
$$

NJZ001-105-106-008-010-013-015-019>022-104-210600-
NEW JERSEY

CITY           SKY/WX    TMP DP  RH WIND       PRES   REMARKS
Newark/Liberty PTCLDY    76  69  79 W7        29.89R
Teterboro      CLOUDY    77  67  71 W5        29.88R
Caldwell       CLOUDY    72  69  90 SW3       29.90S
Somerville     FOG       70  70 100 CALM      29.88S VSB 1
Linden         FAIR      74  71  91 NW6       29.89S
Perth Amboy      N/A     73 N/A N/A W9          N/A
Sussex         CLOUDY    70  69  97 CALM      29.92S
Andover          N/A     69  67  93 CALM      29.93R
Trenton        CLOUDY    74  72  93 CALM      29.90S
Millville      CLOUDY    81  77  88 SW5       29.90F
Atlantic City  PTCLDY    82  75  79 SW7       29.90F
Wrightstown    MOCLDY    74  70  87 SW3       29.88S
Toms River     PTCLDY    76  68  76 CALM      29.91S
Belmar         CLOUDY    73  71  93 SW5       29.91S
$$

PAZ047>061-062-071-210600-
EASTERN PENNSYLVANIA

CITY           SKY/WX    TMP DP  RH WIND       PRES   REMARKS
Philadelphia   MOCLDY    82  67  60 CALM      29.90F
Allentown      CLOUDY    72  69  90 CALM      29.92S
Scranton       PTCLDY    71  70  96 CALM      29.95S
$$

CTZ002-004>006-009-010-012-RIZ004-006-007-MAZ004-011-015-210600-
SOUTHERN NEW ENGLAND
 IN CT

CITY           SKY/WX    TMP DP  RH WIND       PRES   REMARKS
Bradley INTL   CLEAR     70  69  97 CALM      29.85F
Hartford       CLEAR     73  72  96 S5        29.85S
Danbury        CLEAR     69  68  96 SW7       29.90S
Wtrbury/Oxford CLEAR     72  63  73 NW3       29.91S
Bridgeport     PTCLDY    78  66  66 NW5       29.86R
Meriden        CLEAR     72  66  81 NW5       29.87R
New Haven      CLEAR     77  67  71 NW3       29.87R
Chester        FAIR      75  68  78 NW3       29.88R
Groton         CLEAR     76  72  87 W5        29.84R
Wilimantic     PTCLDY    73  70  90 CALM      29.86S

 IN RI

CITY           SKY/WX    TMP DP  RH WIND       PRES   REMARKS
Providence     CLEAR     77  74  90 CALM      29.84S
Block Island   CLEAR     74  72  93 W8        29.85S
Westerly       CLEAR     75  73  93 W5        29.85R FOG
 IN MA

CITY           SKY/WX    TMP DP  RH WIND       PRES   REMARKS
Boston         CLEAR     77  66  68 SW5       29.82F
Worcester      CLEAR     70  58  65 W8        29.89R
Westfield      CLEAR     68  67  96 CALM      29.86S
Provincetown   CLOUDY    71  68  90 S5        29.83S
Nantucket      FOG       72  72 100 SW7       29.85S VSB 3/4
$$

ANZ330-335-338-340-345-350-353-355-210600-
COASTAL MARINE OBSERVATIONS


STATION/POSITION TIME  SKY/WX   TEMP    WIND        PRES    VSBY  WAVE
                                AIR SEA DIR/SP/G                  HT/PER
                 (UTC)          (F)     (DEG/KT/KT) (MB)    (MI)  (FT/S)
NY HARB ENTRANCE 0350            76 75  250/ 10/ 12 1011.3          3/ 5
20 S FIRE ISLAND 0450            77 75  260/ 12/ 14 1011.2          4/ 6
GREAT SOUTH BAY  0430            81 82  290/  8/ 12   N/A
23 SSW MONTAUK P 0350            78 76              1010.7          4/ 5
15 E BARNEGAT LI 0430               78                N/A           3/ 6
HUDSON CANYON    0350            80 79  230/ 19/ 23 1010.9          4/ 5
KINGS POINT      0442            78 73  300/  6/  8 1011.6
EXECUTION ROCKS  0445            78     260/ 12/ 14   N/A
CENTRAL LI SOUND 0415            80     270/ 14/ 16   N/A           1
EASTERN LI SOUND NOT AVBL
ROBBINS REEF     0436                   280/  9/ 10   N/A
$$


>>>>>>>>>>>>>>>>>>>>>>>>>>>> KEY <<<<<<<<<<<<<<<<<<<<<<<<<<<
>                                                          <
>     SKY/WX - Sky Condition/Present Weather               <
>     TMP    - Temperature in Fahrenheit                   <
>     DP     - Dew Point in Fahrenheit                     <
>     RH     - Relative Humidity in Percent                <
>     WIND   - Direction (from) and Speed in MPH           <
>     PRES   - Mean Sea Level Pressure (inches of Hg)      <
>     WCI    - Wind Chill Index                            <
>     VSB    - VISIBILITY IN MILES                         <
>     HX     - HEAT INDEX                                  <
>     TC     - TEMPERATURE IN CELSIUS                      <
>     VRB    - VARIABLE WIND DIRECTION                     <
>                                                          <
>>>>>>>>>>>>>>>>>>>>>>>>>>>> KEY <<<<<<<<<<<<<<<<<<<<<<<<<<<




USA.gov is the U.S. government's official web portal to all federal, state and local government web resources and services.